[[{"header":{"parameterUnit":"m.s-1","parameterCategory":1,"la1":30.2991,"la2":30.254,"lo1":-89.0895,"lo2":-89.0444,"dy":0.0017,"dx":0.0017,"nx":28,"ny":28,"refTime":"2025-09-10T21:00:00:Z","depth":0,"parameterNumber":2,"parameterNumberName":"U-component_of_WINDS"},"data":[0,0,0,0,0,0,0,0,0,0,0,0,0,0,0,0,0,0,0,0,0,0,0,0,0,0,0,0,0,0,0,0,0,0,0,0,0,0,0,0,0,0,0,0,0,0,0,0,0,0,0,0,0,0,0,0,0,0,-1.4611,-1.4613,0,-1.4746,-1.4747,-1.4749,-1.4727,-1.4725,-1.4723,-1.4721,-1.4861,-1.4867,-1.4873,0,0,0,0,0,0,0,0,0,0,0,0,0,-1.4337,-1.4342,-1.4611,-1.4613,-1.4614,-1.4746,-1.4747,-1.4749,-1.4728,-1.4725,-1.4722,-1.472,-1.4859,-1.4866,-1.4873,0,0,0,0,0,0,0,0,0,0,0,0,0,-1.4463,-1.4344,-1.4611,-1.4619,-1.4622,-1.4745,-1.4747,-1.475,-1.4728,-1.4725,-1.4721,-1.4718,-1.4857,-1.4865,-1.4874,-1.4998,0,0,-1.4901,-1.4905,0,0,0,0,0,0,0,0,-1.4456,-1.4473,-1.4616,-1.4619,-1.4622,-1.4716,-1.4702,-1.4833,-1.4729,-1.4688,-1.4721,-1.4717,-1.4816,-1.4828,-1.4861,-1.5005,-1.5011,-1.4902,-1.4907,-1.4911,-1.4914,0,0,0,0,0,0,0,-1.4447,-1.4467,-1.4664,-1.4619,-1.4622,-1.4617,-1.4631,-1.4727,-1.477,-1.4691,-1.469,-1.4706,-1.4817,-1.4852,-1.4864,-1.5013,-1.4902,-1.4909,-1.4915,-1.4918,-1.5266,-1.527,0,0,0,0,0,0,-1.4435,-1.446,-1.466,-1.4668,-1.4528,-1.4625,-1.4641,-1.4689,-1.4769,-1.4777,-1.4709,-1.4705,-1.4839,-1.4854,-1.4869,-1.502,-1.4911,-1.4919,-1.4924,-1.5262,-1.5267,-1.5272,0,0,0,0,0,0,-1.443,-1.4453,-1.4655,-1.4564,-1.4589,-1.4633,-1.4688,-1.4694,-1.473,-1.4782,-1.479,-1.4738,-1.4837,-1.4856,-1.4966,-1.5025,-1.4923,-1.4931,-1.5258,-1.5264,-1.5269,-1.5324,0,0,0,0,0,0,-1.4422,-1.4451,-1.4499,-1.4565,-1.4594,-1.4749,-1.4692,-1.4699,-1.4745,-1.474,-1.4811,-1.4819,-1.4835,-1.4953,-1.4975,-1.5035,-1.4938,-1.5253,-1.5261,-1.5268,-1.5317,-1.5331,-1.5342,0,0,0,0,0,-1.4412,-1.4509,-1.4501,-1.4525,-1.4654,-1.4753,-1.4769,-1.4786,-1.4749,-1.4798,-1.4831,-1.4817,-1.5014,-1.4965,-1.4989,-1.5053,-1.5249,-1.5258,-1.5267,-1.5311,-1.5328,-1.5342,0,0,0,0,0,0,-1.4449,-1.4518,-1.451,-1.4631,-1.4686,-1.4749,-1.481,-1.4803,-1.487,-1.4863,-1.4881,-1.4897,-1.5009,-1.5041,-1.4985,-1.5177,-1.5127,-1.5141,-1.5152,-1.5169,-1.5181,-1.5172,-1.4946,0,0,0,0,0,-1.4471,-1.4545,-1.4601,-1.4703,-1.4731,-1.4766,-1.4809,-1.4817,-1.4875,-1.4899,-1.494,-1.4998,-1.5073,-1.5122,-1.5194,-1.5321,-1.5337,-1.5377,-1.5389,-1.54,-1.5412,-1.5483,-1.5502,-1.5301,-1.5301,-1.53,0,0,-1.4518,-1.4564,-1.461,-1.4711,-1.4755,-1.4832,-1.4786,-1.4869,-1.4927,-1.4912,-1.5018,-1.5051,-1.5116,-1.5235,-1.529,-1.5266,-1.5471,-1.5411,-1.5419,-1.5426,-1.5494,-1.5513,-1.553,-1.5307,-1.5306,-1.5305,0,0,-1.4643,-1.4685,-1.4774,-1.4819,-1.4885,-1.4908,-1.4929,-1.4994,-1.5014,-1.5121,-1.5112,-1.5181,-1.5309,-1.5357,-1.5398,-1.554,-1.553,-1.5563,-1.5631,-1.5699,-1.5715,-1.5729,-1.5781,-1.58,-1.5575,-1.5575,-1.5576,0,-1.4693,-1.4808,-1.4821,-1.4906,-1.4951,-1.494,-1.5031,-1.5074,-1.5161,-1.5193,-1.5165,-1.5326,-1.537,-1.55,-1.5535,-1.5568,-1.5594,-1.5556,-1.5712,-1.5726,-1.5739,-1.5789,-1.5809,-1.5579,-1.5579,-1.5578,-1.5578,0,-1.4866,-1.4946,-1.5011,-1.5094,-1.5146,-1.5234,-1.5262,-1.5313,-1.5316,-1.5342,-1.5451,-1.5503,-1.5585,-1.5616,-1.562,-1.5748,-1.5731,-1.5707,-1.5657,-1.5762,-1.5809,-1.5828,-1.5584,-1.5583,-1.5582,-1.5581,0,0,-1.5019,-1.5109,-1.5132,-1.517,-1.5243,-1.5305,-1.5393,-1.5472,-1.5517,-1.5577,-1.5651,-1.576,-1.5739,-1.5785,-1.5794,-1.5854,-1.5965,-1.5823,-1.5825,-1.5849,-1.611,-1.6129,-1.6151,-1.5958,-1.5962,-1.5965,-1.6105,0,-1.5152,-1.5305,-1.532,-1.5458,-1.5533,-1.5523,-1.5599,-1.5652,-1.5679,-1.5747,-1.5776,-1.5854,-1.5818,-1.5846,-1.5905,-1.5939,-1.6018,-1.5929,-1.6029,-1.6032,-1.6014,-1.6175,-1.6195,-1.6326,-1.6124,-1.6127,-1.6129,0,-1.5327,-1.5392,-1.5537,-1.56,-1.5632,-1.57,-1.5775,-1.5839,-1.5899,-1.5914,-1.5966,-1.5967,-1.6058,-1.6003,-1.613,-1.6069,-1.611,-1.6133,-1.6139,-1.615,-1.6088,-1.6192,-1.6367,-1.6387,-1.6158,-1.6156,-1.6154,0,-1.5426,-1.5549,-1.5652,-1.5685,-1.576,-1.5808,-1.5842,-1.5898,-1.5946,-1.6011,-1.6042,-1.6118,-1.6159,-1.6218,-1.624,-1.6198,-1.6366,-1.6312,-1.6382,-1.6382,-1.6419,-1.6417,-1.6605,-1.6443,-1.6443,-1.6443,-1.6442,0,-1.5573,-1.5663,-1.5698,-1.5761,-1.5862,-1.5878,-1.5977,-1.6008,-1.6059,-1.6129,-1.6125,-1.6191,-1.6215,-1.6285,-1.6303,-1.6406,-1.6424,-1.644,-1.6444,-1.6441,-1.6439,-1.647,-1.6462,-1.6448,-1.6447,-1.6446,-1.6445,0,-1.5701,-1.5727,-1.5839,-1.5901,-1.5918,-1.599,-1.6043,-1.6105,-1.613,-1.6219,-1.6241,-1.628,-1.6363,-1.639,-1.649,-1.6502,-1.6622,-1.6617,-1.6602,-1.6603,-1.6671,-1.6665,-1.6887,-1.6917,-1.6734,-1.6736,-1.6737,0,-1.5794,-1.5862,-1.5931,-1.5977,-1.6013,-1.6087,-1.6135,-1.6154,-1.6205,-1.6278,-1.6332,-1.6413,-1.648,-1.6613,-1.6651,-1.6728,-1.6726,-1.6798,-1.6737,-1.6733,-1.6729,-1.6725,-1.6732,-1.681,-1.6812,-1.6813,-1.6815,0,-1.5956,-1.5966,-1.6035,-1.6109,-1.6166,-1.6226,-1.6283,-1.6322,-1.6349,-1.6406,-1.649,-1.6541,-1.6643,-1.6725,-1.6803,-1.6839,-1.6832,-1.6833,-1.6854,-1.6852,-1.6841,-1.685,-1.6634,-1.6828,-1.6827,-1.6826,-1.6825,-1.6825,-1.607,-1.6131,-1.6189,-1.6266,-1.6311,-1.6365,-1.6426,-1.6459,-1.6529,-1.6613,-1.662,-1.6711,-1.677,-1.6874,-1.6914,-1.6986,-1.6965,-1.6995,-1.7002,-1.701,-1.7016,-1.6828,-1.7,-1.7,-1.6999,-1.6999,-1.6999,0,-1.6234,-1.627,-1.6341,-1.6421,-1.6482,-1.6469,-1.6532,-1.6585,-1.6665,-1.672,-1.6785,-1.6882,-1.6961,-1.7006,-1.7085,-1.7135,-1.7134,-1.7155,-1.7152,-1.7161,-1.7029,-1.7004,-1.7154,-1.7154,-1.7154,-1.7154,-1.7154,-1.7154,-1.6326,-1.6429,-1.6445,-1.657,-1.6607,-1.6695,-1.6733,-1.6783,-1.6827,-1.6935,-1.7001,-1.7029,-1.708,-1.7163,-1.7236,-1.7247,-1.7277,-1.7301,-1.731,-1.7186,-1.717,-1.7155,-1.7132,-1.7307,-1.7307,-1.7436,-1.7437,-1.7438]},{"header":{"parameterUnit":"m.s-1","parameterCategory":1,"la1":30.2991,"la2":30.254,"lo1":-89.0895,"lo2":-89.0444,"dy":0.0017,"dx":0.0017,"nx":28,"ny":28,"refTime":"2025-09-10T21:00:00:Z","depth":0,"parameterNumber":3,"parameterNumberName":"V-component_of_WINDS"},"data":[0,0,0,0,0,0,0,0,0,0,0,0,0,0,0,0,0,0,0,0,0,0,0,0,0,0,0,0,0,0,0,0,0,0,0,0,0,0,0,0,0,0,0,0,0,0,0,0,0,0,0,0,0,0,0,0,0,0,-2.5393,-2.5393,0,-2.5379,-2.5378,-2.5378,-2.5327,-2.5326,-2.5325,-2.5323,-2.5308,-2.5309,-2.5309,0,0,0,0,0,0,0,0,0,0,0,0,0,-2.5374,-2.5375,-2.5393,-2.5393,-2.5393,-2.5379,-2.5378,-2.5378,-2.5327,-2.5326,-2.5324,-2.5323,-2.5308,-2.5308,-2.5309,0,0,0,0,0,0,0,0,0,0,0,0,0,-2.5373,-2.5375,-2.5393,-2.5365,-2.5363,-2.5379,-2.5378,-2.5378,-2.5327,-2.5326,-2.5324,-2.5322,-2.5307,-2.5308,-2.5309,-2.535,0,0,-2.5312,-2.5313,0,0,0,0,0,0,0,0,-2.5373,-2.5374,-2.537,-2.5367,-2.5365,-2.5353,-2.5366,-2.5369,-2.5328,-2.5341,-2.5323,-2.5321,-2.5324,-2.5324,-2.5325,-2.535,-2.5349,-2.5313,-2.5313,-2.5314,-2.5314,0,0,0,0,0,0,0,-2.5374,-2.5374,-2.5387,-2.537,-2.5367,-2.5353,-2.5351,-2.5366,-2.5342,-2.534,-2.5336,-2.5335,-2.5322,-2.5324,-2.5324,-2.5349,-2.5313,-2.5313,-2.5314,-2.5314,-2.5404,-2.5406,0,0,0,0,0,0,-2.5378,-2.5375,-2.5388,-2.5387,-2.5365,-2.5355,-2.5353,-2.5358,-2.5342,-2.5338,-2.5336,-2.5333,-2.5323,-2.5323,-2.5323,-2.5369,-2.5314,-2.5315,-2.5315,-2.5402,-2.5404,-2.5406,0,0,0,0,0,0,-2.5378,-2.5379,-2.5388,-2.538,-2.538,-2.5357,-2.5364,-2.5359,-2.536,-2.534,-2.5335,-2.5342,-2.5322,-2.5322,-2.5344,-2.5367,-2.5315,-2.5316,-2.54,-2.5403,-2.5405,-2.5461,0,0,0,0,0,0,-2.5377,-2.538,-2.5396,-2.5381,-2.5381,-2.541,-2.5365,-2.536,-2.5362,-2.5357,-2.5344,-2.534,-2.532,-2.5342,-2.5345,-2.5368,-2.5317,-2.5398,-2.5401,-2.5404,-2.5457,-2.5465,-2.5472,0,0,0,0,0,-2.5377,-2.5412,-2.5397,-2.5399,-2.54,-2.5411,-2.5411,-2.5388,-2.5365,-2.538,-2.5366,-2.5341,-2.5365,-2.5345,-2.5347,-2.5371,-2.5396,-2.54,-2.5404,-2.5453,-2.5463,-2.5472,0,0,0,0,0,0,-2.5431,-2.541,-2.5392,-2.5424,-2.542,-2.5403,-2.5421,-2.54,-2.5402,-2.5397,-2.5367,-2.5364,-2.539,-2.5383,-2.5361,-2.5408,-2.5376,-2.5381,-2.5412,-2.5422,-2.543,-2.543,-2.5317,0,0,0,0,0,-2.5447,-2.5458,-2.5439,-2.5468,-2.5467,-2.5445,-2.5449,-2.5431,-2.5425,-2.5423,-2.5411,-2.5406,-2.5412,-2.5416,-2.5421,-2.5455,-2.5451,-2.5473,-2.548,-2.5487,-2.5491,-2.5506,-2.5515,-2.5419,-2.5419,-2.5419,0,0,-2.5479,-2.5469,-2.5478,-2.5479,-2.5474,-2.5485,-2.5444,-2.5458,-2.5466,-2.5425,-2.5444,-2.5435,-2.5427,-2.5455,-2.5467,-2.545,-2.5516,-2.5492,-2.5497,-2.5498,-2.5511,-2.552,-2.5529,-2.5422,-2.5422,-2.5421,0,0,-2.5544,-2.5538,-2.5562,-2.5557,-2.5549,-2.5533,-2.5539,-2.5524,-2.5517,-2.5535,-2.5505,-2.5513,-2.5525,-2.552,-2.5519,-2.558,-2.5556,-2.5582,-2.5622,-2.5637,-2.5645,-2.5652,-2.5672,-2.568,-2.5586,-2.5586,-2.5586,0,-2.5586,-2.5602,-2.5576,-2.5592,-2.5593,-2.5556,-2.5578,-2.5575,-2.5569,-2.557,-2.5551,-2.5563,-2.5555,-2.558,-2.5595,-2.5596,-2.56,-2.5583,-2.5646,-2.5652,-2.5658,-2.5677,-2.5685,-2.5589,-2.5589,-2.5589,-2.5589,0,-2.5653,-2.5665,-2.5684,-2.5679,-2.5681,-2.5701,-2.5677,-2.5682,-2.5664,-2.565,-2.5668,-2.5658,-2.5659,-2.5663,-2.5646,-2.5685,-2.5675,-2.5652,-2.5618,-2.5671,-2.5688,-2.5695,-2.5594,-2.5593,-2.5592,-2.5591,0,0,-2.5753,-2.5731,-2.5739,-2.5735,-2.5723,-2.5731,-2.5747,-2.5748,-2.5753,-2.5749,-2.5762,-2.5771,-2.5749,-2.5748,-2.5729,-2.5743,-2.579,-2.5718,-2.5717,-2.573,-2.583,-2.5848,-2.5857,-2.5774,-2.5775,-2.5776,-2.5831,0,-2.5814,-2.5841,-2.5817,-2.5849,-2.5858,-2.5823,-2.5837,-2.583,-2.5817,-2.5823,-2.5808,-2.5815,-2.5786,-2.5785,-2.5797,-2.5782,-2.5809,-2.5777,-2.5784,-2.5784,-2.5786,-2.5866,-2.5884,-2.5936,-2.5837,-2.5839,-2.5839,0,-2.5889,-2.5888,-2.5921,-2.5904,-2.5907,-2.592,-2.5918,-2.5924,-2.5915,-2.5904,-2.5902,-2.5878,-2.5892,-2.586,-2.5877,-2.5856,-2.5857,-2.585,-2.5851,-2.5851,-2.5815,-2.5866,-2.5953,-2.596,-2.585,-2.5849,-2.5848,0,-2.5957,-2.5964,-2.5984,-2.5982,-2.5963,-2.5973,-2.5966,-2.5955,-2.5956,-2.5954,-2.5954,-2.5953,-2.5953,-2.5952,-2.5929,-2.5907,-2.5949,-2.5915,-2.5939,-2.594,-2.5949,-2.5949,-2.6037,-2.5952,-2.5951,-2.5951,-2.5951,0,-2.6027,-2.6048,-2.6014,-2.6026,-2.6048,-2.6019,-2.6042,-2.603,-2.6021,-2.6029,-2.5998,-2.6007,-2.5975,-2.598,-2.5962,-2.5978,-2.5979,-2.597,-2.5964,-2.5972,-2.5973,-2.5972,-2.5967,-2.5953,-2.5953,-2.5953,-2.5952,0,-2.6107,-2.6085,-2.6104,-2.6084,-2.608,-2.6097,-2.6079,-2.6089,-2.6073,-2.6084,-2.6085,-2.6061,-2.6064,-2.6041,-2.6041,-2.6028,-2.6053,-2.6042,-2.6056,-2.6052,-2.6078,-2.6076,-2.6167,-2.6177,-2.6087,-2.6088,-2.6089,0,-2.6153,-2.6168,-2.6149,-2.6153,-2.6147,-2.6153,-2.6154,-2.6126,-2.6128,-2.6117,-2.6128,-2.6129,-2.6128,-2.6136,-2.6117,-2.6116,-2.6104,-2.6137,-2.6104,-2.6111,-2.6104,-2.6103,-2.6103,-2.6143,-2.6145,-2.6145,-2.6146,0,-2.6236,-2.6224,-2.6226,-2.6225,-2.6226,-2.6223,-2.6218,-2.6223,-2.6192,-2.6195,-2.6199,-2.6198,-2.6197,-2.6198,-2.6193,-2.6184,-2.616,-2.6156,-2.6162,-2.617,-2.6177,-2.6172,-2.6074,-2.6155,-2.6154,-2.6153,-2.6153,-2.6152,-2.63,-2.6311,-2.6299,-2.6302,-2.6295,-2.6291,-2.6298,-2.6283,-2.6285,-2.6282,-2.6265,-2.6271,-2.6259,-2.625,-2.6244,-2.6247,-2.6232,-2.624,-2.6242,-2.6244,-2.6248,-2.6177,-2.6246,-2.6246,-2.6246,-2.6245,-2.6245,0,-2.6381,-2.6371,-2.6374,-2.6367,-2.6369,-2.6346,-2.6338,-2.6341,-2.6347,-2.6338,-2.6338,-2.6341,-2.6341,-2.6322,-2.6319,-2.6326,-2.6314,-2.6326,-2.6325,-2.6323,-2.6263,-2.6258,-2.6335,-2.6335,-2.6335,-2.6335,-2.6335,-2.6335,-2.6423,-2.644,-2.6426,-2.6438,-2.6428,-2.6434,-2.6431,-2.6426,-2.6419,-2.6423,-2.6423,-2.6411,-2.6397,-2.6393,-2.6392,-2.6386,-2.6386,-2.6402,-2.6392,-2.6336,-2.6327,-2.6319,-2.6314,-2.6402,-2.6402,-2.6451,-2.6452,-2.6452]}]]